GW2075 Weather Reports


time (UTC)temp
C
wind
direction
speed
KPH
gust
KPH
rain 1hr
cm
rain 24hr
cm
rain mn
cm
humidity
%
barometer
mb
20260505140542 21 203 8.0 14.5 0.00 0.00 0.00 58 1012.9
20260505124955 18 162 6.4 8.0 0.00 0.00 0.00 68 1013.5
20260505124452 18 187 4.8 9.7 0.00 0.00 0.00 68 1013.5
20260505123948 18 251 6.4 14.5 0.00 0.00 0.00 68 1013.5
20260505123445 17 275 8.0 12.9 0.00 0.00 0.00 69 1013.5
20260505122941 17 215 8.0 9.7 0.00 0.00 0.00 70 1013.5
20260505122438 17 286 1.6 9.7 0.00 0.00 0.00 71 1013.3
20260505121935 17 197 9.7 12.9 0.00 0.00 0.00 70 1013.5
20260505121432 17 197 8.0 14.5 0.00 0.00 0.00 70 1013.5
20260505120927 17 213 9.7 12.9 0.00 0.00 0.00 71 1013.5
20260505120424 17 255 8.0 12.9 0.00 0.00 0.00 71 1013.5
20260505115923 16 219 6.4 12.9 0.00 0.00 0.00 71 1013.5
20260505115420 16 206 8.0 11.3 0.00 0.00 0.00 71 1013.3
20260505114918 16 212 9.7 12.9 0.00 0.00 0.00 72 1013.2
20260505114414 16 275 3.2 4.8 0.00 0.00 0.00 73 1013.2
20260505113910 16 214 6.4 9.7 0.00 0.00 0.00 73 1012.9
20260505113407 16 196 6.4 9.7 0.00 0.00 0.00 74 1013.1
20260505112903 15 185 4.8 9.7 0.00 0.00 0.00 75 1013.0
20260505112401 15 299 3.2 9.7 0.00 0.00 0.00 75 1013.0
20260505111856 15 5 8.0 11.3 0.00 0.00 0.00 74 1013.0
20260505111352 15 301 3.2 4.8 0.00 0.00 0.00 75 1012.8
20260505110848 15 204 4.8 9.7 0.00 0.00 0.00 75 1012.6
20260505110345 15 221 6.4 8.0 0.00 0.00 0.00 75 1012.7
20260505101815 15 224 8.0 11.3 0.00 0.00 0.00 76 1012.1
20260505101310 15 214 6.4 11.3 0.00 0.00 0.00 77 1012.0
20260505100807 15 215 4.8 9.7 0.00 0.00 0.00 76 1012.0
20260505100304 15 222 9.7 12.9 0.00 0.00 0.00 76 1012.1
20260505095759 15 196 6.4 11.3 0.00 0.00 0.00 76 1012.1
20260505095257 15 196 6.4 14.5 0.00 0.00 0.00 75 1012.1
20260505094752 15 271 4.8 11.3 0.00 0.00 0.00 75 1011.9
20260505094249 15 241 4.8 14.5 0.00 0.00 0.00 74 1012.0
20260505093745 15 209 11.3 12.9 0.00 0.00 0.00 74 1012.0
20260505093243 15 215 4.8 12.9 0.00 0.00 0.00 74 1011.7
20260505092740 15 170 1.6 9.7 0.00 0.00 0.00 74 1012.1
20260505092238 15 295 3.2 9.7 0.00 0.00 0.00 74 1011.9
20260505091735 15 156 4.8 9.7 0.00 0.00 0.00 74 1011.9
20260505091233 15 263 4.8 4.8 0.00 0.00 0.00 74 1011.7
20260505090730 15 210 4.8 9.7 0.00 0.00 0.00 74 1011.6
20260505090229 15 310 3.2 4.8 0.00 0.00 0.00 74 1011.8
20260505085726 15 318 4.8 9.7 0.00 0.00 0.00 74 1011.5
20260505085224 15 219 6.4 8.0 0.00 0.00 0.00 74 1011.6
20260505084721 15 265 3.2 8.0 0.00 0.00 0.00 74 1011.6
20260505084220 16 171 4.8 9.7 0.00 0.00 0.00 73 1011.4
20260505083716 16 152 4.8 8.0 0.00 0.00 0.00 72 1011.6
20260505083213 16 335 3.2 8.0 0.00 0.00 0.00 72 1011.6
20260505082709 16 250 3.2 11.3 0.00 0.00 0.00 71 1011.5
20260505082207 16 253 4.8 9.7 0.00 0.00 0.00 71 1011.7
20260505081702 16 268 6.4 14.5 0.00 0.00 0.00 70 1011.6
20260505081200 16 319 1.6 8.0 0.00 0.00 0.00 70 1011.7
20260505080657 16 178 6.4 11.3 0.00 0.00 0.00 70 1011.6
20260505080152 16 221 4.8 9.7 0.00 0.00 0.00 70 1011.6
20260505075648 16 263 4.8 9.7 0.00 0.00 0.00 69 1011.6
20260505075145 16 200 4.8 9.7 0.00 0.00 0.00 70 1011.5
20260505074643 16 262 3.2 8.0 0.00 0.00 0.00 69 1011.5
20260505074139 16 196 4.8 11.3 0.00 0.00 0.00 69 1011.5
20260505073637 16 195 4.8 9.7 0.00 0.00 0.00 69 1011.4
20260505073135 16 228 3.2 4.8 0.00 0.00 0.00 69 1011.4
20260505072630 16 210 4.8 9.7 0.00 0.00 0.00 69 1011.1
20260505072127 16 223 3.2 4.8 0.00 0.00 0.00 69 1011.3
20260505071623 16 248 4.8 8.0 0.00 0.00 0.00 70 1011.3
20260505071121 16 264 3.2 8.0 0.00 0.00 0.00 70 1011.2
20260505070618 16 304 1.6 3.2 0.00 0.00 0.00 71 1011.1
20260505070114 16 215 3.2 4.8 0.00 0.00 0.00 71 1011.3
20260505065610 16 328 0.0 9.7 0.00 0.00 0.00 71 1011.2
20260505065107 16 223 4.8 8.0 0.00 0.00 0.00 70 1011.3
20260505064604 16 211 4.8 8.0 0.00 0.00 0.00 71 1011.3
20260505064103 16 296 3.2 3.2 0.00 0.00 0.00 71 1011.4
20260505063559 16 283 1.6 4.8 0.00 0.00 0.00 70 1011.4
20260505063055 16 194 3.2 8.0 0.00 0.00 0.00 70 1011.6
20260505062551 16 288 1.6 4.8 0.00 0.00 0.00 70 1011.6
20260505062049 16 307 3.2 4.8 0.00 0.00 0.00 70 1011.9
20260505061546 16 212 4.8 8.0 0.00 0.00 0.00 70 1011.5
20260505061044 16 241 3.2 11.3 0.00 0.00 0.00 70 1011.7
20260505060541 16 332 3.2 8.0 0.00 0.00 0.00 70 1011.6
20260505060038 16 223 3.2 9.7 0.00 0.00 0.00 69 1011.5
20260505055533 17 209 8.0 9.7 0.00 0.00 0.00 69 1011.8
20260505055030 17 217 9.7 12.9 0.00 0.00 0.00 68 1011.7
20260505054527 17 174 4.8 11.3 0.00 0.00 0.00 68 1011.7
20260505054026 17 214 4.8 11.3 0.00 0.00 0.00 68 1011.7
20260505053522 17 184 4.8 9.7 0.00 0.00 0.00 68 1011.8
20260505053019 17 203 6.4 9.7 0.00 0.00 0.00 67 1011.7
20260505052516 17 200 6.4 9.7 0.00 0.00 0.00 66 1011.8
20260505052014 17 234 8.0 9.7 0.00 0.00 0.00 66 1011.9
20260505051510 17 208 6.4 9.7 0.00 0.00 0.00 65 1011.8
20260505051009 17 216 4.8 11.3 0.00 0.00 0.00 65 1011.6
20260505050506 17 289 3.2 12.9 0.00 0.00 0.00 65 1011.6
20260505041434 17 209 6.4 12.9 0.00 0.00 0.00 63 1011.6
20260505040931 17 203 4.8 11.3 0.00 0.00 0.00 64 1011.4
20260505040428 18 222 4.8 8.0 0.00 0.00 0.00 63 1011.5
20260505035925 17 169 6.4 8.0 0.00 0.00 0.00 63 1011.3
20260505035421 18 299 8.0 9.7 0.00 0.00 0.00 62 1011.3
20260505034919 18 206 8.0 11.3 0.00 0.00 0.00 62 1011.3
20260505034415 18 128 6.4 12.9 0.00 0.00 0.00 61 1011.3
20260505033912 18 172 4.8 4.8 0.00 0.00 0.00 62 1011.3
20260505033409 18 220 4.8 9.7 0.00 0.00 0.00 61 1011.4
20260505032907 18 250 3.2 4.8 0.00 0.00 0.00 62 1011.2
20260505032403 18 241 4.8 9.7 0.00 0.00 0.00 61 1011.1
20260505031900 18 220 4.8 12.9 0.00 0.00 0.00 61 1011.5
20260505031357 18 219 8.0 11.3 0.00 0.00 0.00 61 1011.2
20260505030854 18 258 4.8 9.7 0.00 0.00 0.00 61 1011.2
20260505030350 18 282 6.4 11.3 0.00 0.00 0.00 60 1011.4
20260505025845 17 232 8.0 14.5 0.00 0.00 0.00 62 1011.5
20260505025343 17 236 8.0 11.3 0.00 0.00 0.00 62 1011.2
20260505024842 17 272 1.6 9.7 0.00 0.00 0.00 62 1011.6
20260505024339 17 221 6.4 8.0 0.00 0.00 0.00 61 1011.2
20260505023836 18 192 4.8 8.0 0.00 0.00 0.00 60 1011.1
20260505023333 18 225 6.4 11.3 0.00 0.00 0.00 60 1011.4
20260505022830 18 167 4.8 8.0 0.00 0.00 0.00 60 1011.3
20260505022327 18 209 4.8 12.9 0.00 0.00 0.00 59 1011.2
20260505021825 18 248 4.8 11.3 0.00 0.00 0.00 58 1011.2
20260505021321 18 232 4.8 9.7 0.00 0.00 0.00 58 1011.1
20260505020817 18 232 8.0 16.1 0.00 0.00 0.00 57 1011.2
20260505020312 18 257 4.8 9.7 0.00 0.00 0.00 58 1011.0
20260505015809 19 238 6.4 9.7 0.00 0.00 0.00 57 1011.1
20260505015307 19 242 8.0 11.3 0.00 0.00 0.00 56 1011.3
20260505014804 19 33 6.4 11.3 0.00 0.00 0.00 55 1011.2
20260505014301 19 139 8.0 12.9 0.00 0.00 0.00 55 1011.0
20260505013757 18 230 4.8 9.7 0.00 0.00 0.00 56 1010.9
20260505013255 18 147 6.4 9.7 0.00 0.00 0.00 55 1010.6
20260505012753 19 295 6.4 12.9 0.00 0.00 0.00 55 1011.0
20260505012250 19 196 4.8 9.7 0.00 0.00 0.00 55 1010.9
20260505011745 19 230 4.8 9.7 0.00 0.00 0.00 55 1011.0
20260505011243 19 200 3.2 8.0 0.00 0.00 0.00 54 1011.0
20260505010738 19 193 4.8 8.0 0.00 0.00 0.00 54 1011.0
20260505010235 19 204 3.2 11.3 0.00 0.00 0.00 54 1010.7
20260505005731 19 3 1.6 8.0 0.00 0.00 0.00 54 1010.6
20260505005228 19 183 3.2 4.8 0.00 0.00 0.00 53 1010.8
20260505004726 19 200 8.0 9.7 0.00 0.00 0.00 52 1010.6
20260505004222 20 177 6.4 9.7 0.00 0.00 0.00 52 1010.2
20260505003719 20 276 3.2 9.7 0.00 0.00 0.00 52 1010.3
20260505003217 20 193 6.4 12.9 0.00 0.00 0.00 51 1010.6
20260505002713 20 240 8.0 14.5 0.00 0.00 0.00 51 1010.7
20260505002211 20 200 6.4 9.7 0.00 0.00 0.00 51 1010.4
20260505001708 20 194 4.8 8.0 0.00 0.00 0.00 51 1010.6
20260505001205 20 214 8.0 16.1 0.00 0.00 0.00 50 1010.6
20260505000702 20 248 3.2 11.3 0.00 0.00 0.00 51 1010.3
20260505000200 20 206 8.0 9.7 0.00 0.00 0.00 50 1010.7
20260504235656 20 328 6.4 8.0 0.00 0.00 0.00 50 1010.2
20260504235152 20 184 9.7 14.5 0.00 0.00 0.00 49 1010.1
20260504234650 20 217 4.8 9.7 0.00 0.00 0.00 49 1010.2
20260504234147 21 297 4.8 4.8 0.00 0.00 0.00 49 1010.2
20260504233643 21 165 4.8 9.7 0.00 0.00 0.00 48 1010.2
20260504233138 21 246 3.2 4.8 0.00 0.00 0.00 49 1010.2
20260504232636 21 251 3.2 3.2 0.00 0.00 0.00 48 1010.1
20260504232128 21 202 4.8 4.8 0.00 0.00 0.00 47 1010.2
20260504231624 21 187 4.8 9.7 0.00 0.00 0.00 48 1010.2
20260504231121 21 216 9.7 11.3 0.00 0.00 0.00 47 1010.1
20260504230617 21 235 4.8 12.9 0.00 0.00 0.00 47 1010.3
20260504230116 22 219 8.0 14.5 0.00 0.00 0.00 46 1010.2
20260504225614 22 197 4.8 8.0 0.00 0.00 0.00 48 1010.6
20260504225110 22 293 4.8 11.3 0.00 0.00 0.00 46 1010.2
20260504224607 22 196 9.7 14.5 0.00 0.00 0.00 47 1010.7
20260504224104 22 306 4.8 4.8 0.00 0.00 0.00 47 1010.6
20260504223601 22 217 8.0 9.7 0.00 0.00 0.00 46 1010.2
20260504223056 22 302 4.8 11.3 0.00 0.00 0.00 47 1010.4
20260504222553 22 343 4.8 8.0 0.00 0.00 0.00 48 1010.9
20260504222050 22 222 6.4 9.7 0.00 0.00 0.00 47 1010.4
20260504221548 22 227 6.4 9.7 0.00 0.00 0.00 46 1010.4
20260504221044 23 181 11.3 14.5 0.00 0.00 0.00 44 1010.4
20260504220541 23 225 4.8 9.7 0.00 0.00 0.00 47 1010.6
20260504220038 23 242 8.0 9.7 0.00 0.00 0.00 45 1010.4
20260504215534 23 295 4.8 9.7 0.00 0.00 0.00 47 1010.4
20260504215032 23 270 6.4 14.5 0.00 0.00 0.00 46 1010.4
20260504214528 23 211 8.0 14.5 0.00 0.00 0.00 45 1010.4
20260504214024 22 201 12.9 16.1 0.00 0.00 0.00 45 1010.6
20260504213521 22 210 8.0 16.1 0.00 0.00 0.00 45 1010.6
20260504213018 23 207 9.7 24.1 0.00 0.00 0.00 44 1010.7
20260504212514 23 227 8.0 12.9 0.00 0.00 0.00 45 1010.2
20260504212011 23 232 9.7 16.1 0.00 0.00 0.00 44 1010.8
20260504211508 22 208 11.3 14.5 0.00 0.00 0.00 44 1010.3
20260504211006 22 213 12.9 16.1 0.00 0.00 0.00 45 1010.6
20260504210502 23 216 9.7 12.9 0.00 0.00 0.00 47 1010.8
20260504205959 23 240 6.4 12.9 0.00 0.00 0.00 48 1010.6
20260504205457 23 197 11.3 17.7 0.00 0.00 0.00 45 1010.7
20260504204955 23 206 8.0 12.9 0.00 0.00 0.00 44 1010.4
20260504204452 23 148 11.3 22.5 0.00 0.00 0.00 45 1010.4
20260504203951 23 191 11.3 12.9 0.00 0.00 0.00 43 1010.4
20260504203449 22 237 6.4 12.9 0.00 0.00 0.00 46 1010.6
20260504202945 22 207 9.7 14.5 0.00 0.00 0.00 45 1010.7
20260504202441 22 107 12.9 17.7 0.00 0.00 0.00 45 1010.7
20260504201938 22 197 14.5 22.5 0.00 0.00 0.00 44 1010.7
20260504201435 22 216 11.3 20.9 0.00 0.00 0.00 46 1010.8
20260504200933 22 226 11.3 17.7 0.00 0.00 0.00 45 1011.1
20260504200430 22 267 4.8 16.1 0.00 0.00 0.00 48 1011.2
20260504195926 22 180 11.3 20.9 0.00 0.00 0.00 45 1011.2
20260504195422 22 244 11.3 17.7 0.00 0.00 0.00 45 1011.4
20260504194919 22 222 8.0 16.1 0.00 0.00 0.00 47 1011.1
20260504194415 22 180 9.7 12.9 0.00 0.00 0.00 46 1011.5
20260504193911 22 227 14.5 20.9 0.00 0.00 0.00 45 1011.5
20260504193408 22 201 9.7 20.9 0.00 0.00 0.00 48 1011.6
20260504192907 22 216 9.7 11.3 0.00 0.00 0.00 43 1011.5
20260504192404 22 317 11.3 16.1 0.00 0.00 0.00 46 1011.7
20260504191903 22 214 4.8 14.5 0.00 0.00 0.00 48 1012.0
20260504191400 22 217 8.0 14.5 0.00 0.00 0.00 46 1012.0
20260504190855 21 180 14.5 17.7 0.00 0.00 0.00 45 1012.4
20260504190351 22 230 14.5 27.4 0.00 0.00 0.00 45 1012.3
20260504185848 22 269 9.7 14.5 0.00 0.00 0.00 44 1012.1
20260504185345 21 295 8.0 14.5 0.00 0.00 0.00 48 1012.1
20260504184841 22 257 11.3 12.9 0.00 0.00 0.00 46 1012.3
20260504184337 22 243 9.7 12.9 0.00 0.00 0.00 46 1012.3
20260504183833 22 190 9.7 14.5 0.00 0.00 0.00 46 1012.7
20260504183331 21 207 9.7 12.9 0.00 0.00 0.00 46 1012.7
20260504182828 21 130 6.4 12.9 0.00 0.00 0.00 46 1012.8
20260504182326 21 249 11.3 16.1 0.00 0.00 0.00 44 1012.8
20260504181822 21 197 8.0 14.5 0.00 0.00 0.00 48 1012.8
20260504181320 21 213 14.5 20.9 0.00 0.00 0.00 46 1013.1
20260504180819 21 183 11.3 12.9 0.00 0.00 0.00 48 1013.0
20260504180317 21 202 12.9 17.7 0.00 0.00 0.00 46 1013.1
20260504175814 21 224 16.1 22.5 0.00 0.00 0.00 48 1012.9
20260504175311 21 204 17.7 20.9 0.00 0.00 0.00 45 1013.1
20260504174809 21 248 9.7 12.9 0.00 0.00 0.00 46 1013.2
20260504174306 20 209 6.4 12.9 0.00 0.00 0.00 49 1013.1
20260504173803 20 246 11.3 17.7 0.00 0.00 0.00 45 1013.3
20260504173300 20 268 16.1 17.7 0.00 0.00 0.00 45 1013.2
20260504172756 20 185 12.9 16.1 0.00 0.00 0.00 46 1013.2
20260504172253 20 251 11.3 16.1 0.00 0.00 0.00 46 1013.3
20260504171749 20 310 6.4 11.3 0.00 0.00 0.00 50 1013.3
20260504171247 20 225 12.9 20.9 0.00 0.00 0.00 49 1013.3
20260504170743 20 59 11.3 14.5 0.00 0.00 0.00 47 1013.3
20260504170241 20 223 8.0 11.3 0.00 0.00 0.00 50 1013.3
20260504160159 18 253 4.8 8.0 0.00 0.00 0.00 53 1014.5
20260504151127 18 218 9.7 14.5 0.00 0.00 0.00 47 1014.9
20260504150624 17 198 6.4 11.3 0.00 0.00 0.00 53 1015.1
20260504150121 18 211 8.0 17.7 0.00 0.00 0.00 49 1015.1